When you browse on this site, cookies collect data to enhance your experience and personalize the content and advertising you see.
Visit our Privacy Policy to learn more. By continuing to use the site, you agree to this use of cookies and data.
  • In Slovakia
  • List of Countries
  • For 7 days
  • Water Temperature
  • Satellite Maps
  • Weather Map
  • Weather Widgets
  • user-avatar
    Login

    Hourly Weather Comayagua

    Today, 14 December, Friday

    Time Temperature Precipitation Wind Pressure Humidity
    00:00 +20°C° 0 mm 1 mps 709 mmHg 88%
    01:00 +20°C° 0 mm 1 mps 709 mmHg 89%
    02:00 +20°C° 0 mm 1 mps 708 mmHg 90%
    03:00 +19°C° 0 mm 1 mps 708 mmHg 92%
    04:00 +19°C° 0 mm 1 mps 708 mmHg 92%
    05:00 +19°C° 0 mm 1 mps 708 mmHg 93%
    06:00 +19°C° 0 mm 1 mps 709 mmHg 93%
    07:00 +22°C° 0 mm 1 mps 709 mmHg 81%
    08:00 +25°C° 0 mm 1 mps 710 mmHg 69%
    09:00 +28°C° 0 mm 1 mps 711 mmHg 56%
    10:00 +30°C° 0 mm 1 mps 710 mmHg 49%
    11:00 +31°C° 0 mm 1 mps 710 mmHg 41%
    12:00 +33°C° 0 mm 1 mps 710 mmHg 33%
    13:00 +33°C° 0 mm 1 mps 709 mmHg 33%
    14:00 +34°C° 0 mm 2 mps 709 mmHg 33%
    15:00 +34°C° 0 mm 2 mps 708 mmHg 33%
    16:00 +30°C° 0 mm 2 mps 708 mmHg 43%
    17:00 +27°C° 0 mm 1 mps 708 mmHg 52%
    18:00 +24°C° 0 mm 1 mps 708 mmHg 62%
    19:00 +23°C° 0 mm 1 mps 709 mmHg 69%
    20:00 +23°C° 0 mm 1 mps 709 mmHg 76%
    21:00 +22°C° 0 mm 1 mps 710 mmHg 83%
    22:00 +21°C° 0 mm 1 mps 710 mmHg 86%
    23:00 +21°C° 0 mm 1 mps 710 mmHg 90%

    Tomorrow, 15 December, Saturday

    Time Temperature Precipitation Wind Pressure Humidity
    00:00 +21°C° 0 mm 1 mps 710 mmHg 93%
    01:00 +21°C° 0.1 mm 1 mps 710 mmHg 94%
    02:00 +21°C° 0.1 mm 1 mps 710 mmHg 95%
    03:00 +20°C° 0.1 mm 2 mps 710 mmHg 95%
    04:00 +20°C° 0.1 mm 2 mps 710 mmHg 95%
    05:00 +20°C° 0.1 mm 2 mps 710 mmHg 95%
    06:00 +20°C° 0.1 mm 2 mps 710 mmHg 95%
    07:00 +21°C° 0.3 mm 2 mps 711 mmHg 91%
    08:00 +22°C° 0.3 mm 3 mps 712 mmHg 87%
    09:00 +23°C° 0.3 mm 4 mps 712 mmHg 83%
    10:00 +23°C° 0.2 mm 4 mps 712 mmHg 81%
    11:00 +23°C° 0.2 mm 4 mps 711 mmHg 79%
    12:00 +23°C° 0.2 mm 4 mps 711 mmHg 78%
    13:00 +23°C° 0.1 mm 4 mps 711 mmHg 78%
    14:00 +23°C° 0.1 mm 4 mps 710 mmHg 77%
    15:00 +22°C° 0.1 mm 4 mps 710 mmHg 77%
    16:00 +21°C° 0 mm 4 mps 710 mmHg 81%
    17:00 +20°C° 0 mm 3 mps 710 mmHg 85%
    18:00 +19°C° 0 mm 3 mps 711 mmHg 89%
    19:00 +19°C° 0 mm 3 mps 711 mmHg 89%
    20:00 +19°C° 0 mm 3 mps 712 mmHg 90%
    21:00 +18°C° 0 mm 3 mps 713 mmHg 91%
    22:00 +18°C° 0 mm 3 mps 712 mmHg 91%
    23:00 +18°C° 0 mm 3 mps 712 mmHg 91%

    Day after tomorrow, 16 December, Sunday

    Time Temperature Precipitation Wind Pressure Humidity
    00:00 +18°C° 0 mm 3 mps 712 mmHg 91%
    01:00 +18°C° 0 mm 3 mps 712 mmHg 92%
    02:00 +18°C° 0 mm 3 mps 711 mmHg 92%
    03:00 +17°C° 0 mm 3 mps 711 mmHg 92%
    04:00 +17°C° 0 mm 3 mps 711 mmHg 92%
    05:00 +17°C° 0 mm 3 mps 711 mmHg 92%
    06:00 +17°C° 0 mm 3 mps 711 mmHg 92%
    07:00 +18°C° 0 mm 3 mps 712 mmHg 88%
    08:00 +19°C° 0 mm 3 mps 713 mmHg 84%
    09:00 +20°C° 0 mm 3 mps 713 mmHg 81%
    10:00 +21°C° 0 mm 3 mps 713 mmHg 77%
    11:00 +22°C° 0 mm 4 mps 712 mmHg 74%
    12:00 +23°C° 0 mm 4 mps 712 mmHg 70%
    13:00 +23°C° 0 mm 4 mps 711 mmHg 71%
    14:00 +23°C° 0 mm 4 mps 711 mmHg 72%
    15:00 +23°C° 0 mm 4 mps 710 mmHg 73%
    16:00 +21°C° 0 mm 3 mps 710 mmHg 78%
    17:00 +20°C° 0 mm 3 mps 710 mmHg 83%
    18:00 +19°C° 0 mm 3 mps 710 mmHg 89%
    19:00 +19°C° 0 mm 3 mps 711 mmHg 90%
    20:00 +18°C° 0 mm 2 mps 711 mmHg 91%
    21:00 +18°C° 0 mm 2 mps 712 mmHg 93%
    22:00 +18°C° 0 mm 2 mps 712 mmHg 93%
    23:00 +18°C° 0 mm 2 mps 711 mmHg 93%

    17 December, Monday

    Time Temperature Precipitation Wind Pressure Humidity
    00:00 +18°C° 0 mm 2 mps 711 mmHg 93%
    01:00 +18°C° 0 mm 2 mps 711 mmHg 93%
    02:00 +18°C° 0 mm 2 mps 710 mmHg 93%
    03:00 +18°C° 0 mm 2 mps 710 mmHg 93%
    04:00 +18°C° 0 mm 2 mps 710 mmHg 92%
    05:00 +18°C° 0 mm 2 mps 710 mmHg 92%
    06:00 +18°C° 0 mm 2 mps 711 mmHg 92%
    07:00 +19°C° 0 mm 3 mps 711 mmHg 87%
    08:00 +20°C° 0 mm 3 mps 712 mmHg 83%
    09:00 +21°C° 0 mm 3 mps 712 mmHg 79%
    10:00 +22°C° 0 mm 3 mps 712 mmHg 76%
    11:00 +22°C° 0 mm 3 mps 711 mmHg 74%
    12:00 +24°C° 0 mm 3 mps 711 mmHg 72%
    13:00 +24°C° 0 mm 3 mps 710 mmHg 73%
    14:00 +22°C° 0 mm 3 mps 710 mmHg 74%
    15:00 +22°C° 0 mm 3 mps 709 mmHg 75%
    16:00 +21°C° 0 mm 2 mps 709 mmHg 80%
    17:00 +20°C° 0 mm 2 mps 709 mmHg 85%
    18:00 +19°C° 0 mm 2 mps 710 mmHg 90%
    19:00 +19°C° 0 mm 2 mps 710 mmHg 91%
    20:00 +19°C° 0 mm 2 mps 711 mmHg 92%
    21:00 +19°C° 0 mm 2 mps 711 mmHg 93%
    22:00 +18°C° 0 mm 2 mps 711 mmHg 93%
    23:00 +18°C° 0 mm 2 mps 711 mmHg 94%

    18 December, Tuesday

    Time Temperature Precipitation Wind Pressure Humidity
    00:00 +18°C° 0 mm 2 mps 710 mmHg 95%
    01:00 +18°C° 0 mm 2 mps 710 mmHg 95%
    02:00 +18°C° 0 mm 2 mps 710 mmHg 95%
    03:00 +19°C° 0 mm 1 mps 709 mmHg 95%
    04:00 +18°C° 0 mm 1 mps 709 mmHg 95%
    05:00 +18°C° 0 mm 1 mps 710 mmHg 95%
    06:00 +18°C° 0 mm 1 mps 710 mmHg 95%
    07:00 +20°C° 0 mm 1 mps 710 mmHg 87%
    08:00 +22°C° 0 mm 1 mps 711 mmHg 79%
    09:00 +24°C° 0 mm 1 mps 711 mmHg 71%
    10:00 +26°C° 0 mm 1 mps 711 mmHg 63%
    11:00 +28°C° 0 mm 2 mps 710 mmHg 55%
    12:00 +30°C° 0 mm 2 mps 710 mmHg 46%
    13:00 +30°C° 0 mm 2 mps 709 mmHg 48%
    14:00 +30°C° 0 mm 2 mps 708 mmHg 49%
    15:00 +30°C° 0 mm 2 mps 707 mmHg 50%
    16:00 +27°C° 0 mm 2 mps 708 mmHg 60%
    17:00 +25°C° 0 mm 1 mps 708 mmHg 70%
    18:00 +23°C° 0 mm 1 mps 708 mmHg 80%
    19:00 +22°C° 0 mm 1 mps 708 mmHg 84%
    20:00 +22°C° 0 mm 1 mps 709 mmHg 89%
    21:00 +21°C° 0 mm 1 mps 709 mmHg 93%
    22:00 +21°C° 0 mm 1 mps 709 mmHg 94%
    23:00 +21°C° 0 mm 1 mps 709 mmHg 95%

    19 December, Wednesday

    Time Temperature Precipitation Wind Pressure Humidity
    00:00 +21°C° 0 mm 1 mps 709 mmHg 96%
    01:00 +21°C° 0 mm 1 mps 709 mmHg 96%
    02:00 +21°C° 0 mm 1 mps 708 mmHg 96%
    03:00 +19°C° 0 mm 0 mps 708 mmHg 96%
    04:00 +18°C° 0 mm 0 mps 708 mmHg 96%
    05:00 +18°C° 0 mm 0 mps 709 mmHg 96%
    06:00 +18°C° 0 mm 0 mps 709 mmHg 96%
    07:00 +22°C° 0 mm 1 mps 710 mmHg 86%
    08:00 +24°C° 0 mm 1 mps 710 mmHg 76%
    09:00 +26°C° 0 mm 1 mps 711 mmHg 66%
    10:00 +28°C° 0 mm 1 mps 710 mmHg 58%
    11:00 +30°C° 0 mm 1 mps 710 mmHg 49%
    12:00 +32°C° 0 mm 1 mps 709 mmHg 40%
    13:00 +32°C° 0 mm 1 mps 709 mmHg 42%
    14:00 +32°C° 0 mm 1 mps 708 mmHg 43%
    15:00 +31°C° 0 mm 1 mps 707 mmHg 44%
    16:00 +29°C° 0 mm 1 mps 707 mmHg 52%
    17:00 +27°C° 0 mm 1 mps 707 mmHg 59%
    18:00 +25°C° 0 mm 1 mps 708 mmHg 67%
    19:00 +24°C° 0 mm 1 mps 708 mmHg 73%
    20:00 +23°C° 0 mm 1 mps 708 mmHg 78%
    21:00 +20°C° 0 mm 0 mps 709 mmHg 84%
    22:00 +22°C° 0 mm 1 mps 709 mmHg 86%
    23:00 +21°C° 0 mm 1 mps 708 mmHg 89%
    Show more